Weather Roundup
Issued by NWS Chicago, IL

Home | Current Version | Previous Version | Graphics & Text | Print | Product List | Glossary On
Versions: 1 2 3 4 5 6 7 8 9 10 11 12 13 14 15 16 17 18 19 20 21 22 23 24 25 26 27 28 29 30 31 32 33 34 35 36 37 38 39 40 41 42 43 44 45 46 47 48 49 50
000
NZUS59 KLOT 271506
HRRLOT

CHICAGO AREA WEATHER ROUNDUP
NATIONAL WEATHER SERVICE CHICAGO/ROMEOVILLE IL
900 AM CST SAT DEC 27 2014

NOTE: "FAIR" INDICATES FEW OR NO CLOUDS BELOW 12,000 FEET WITH NO
SIGNIFICANT WEATHER AND/OR OBSTRUCTIONS TO VISIBILITY.

* THESE STATIONS ARE NOT UNDER NWS QUALITY CONTROL. THEY ALSO MAY NOT
  REPORT WEATHER SUCH AS PRECIPITATION OR FOG.

ILZ005-006-012>014-019>023-271600-
NORTHEAST ILLINOIS

CITY           SKY/WX    TMP DP  RH WIND       PRES   REMARKS
OHARE          CLOUDY    47  44  90 S14G22    29.93F
MIDWAY         CLOUDY    49  46  90 SW15      29.96F
AURORA         CLOUDY    49  45  86 S14G23    29.96R FOG
LANSING*       CLOUDY    46  46  97 S14       29.98F FOG
JOLIET*        CLOUDY    46  45  95 SW10G16   29.98S FOG
WAUKEGAN       CLOUDY    47  44  90 S14G24    29.88F
DUPAGE AIRPORT CLOUDY    47  45  93 S14       29.94S
WHEELING       CLOUDY    47  45  93 S13       29.93F
KANKAKEE*      CLOUDY    47  46  97 S17       30.02R FOG
MORRIS*        CLOUDY    47  47  99 SW17      29.98S FOG
LEWIS AIRPORT* CLOUDY    46  46 100 SW21      29.97S FOG
NORTHERLY IS     N/A     47  44  90 S13         N/A
$$

WIZ051-052-058>065-066-070>072-271600-
SOUTHEAST WISCONSIN

CITY           SKY/WX    TMP DP  RH WIND       PRES   REMARKS
MILWAUKEE      LGT RAIN  48  44  86 SW14      29.87F FOG
KENOSHA*       CLOUDY    48  46  93 S13       29.87F FOG
RACINE*        CLOUDY    48  45  89 S14G20    29.89F
BURLINGTON     CLOUDY    46  45  97 S16G23    29.88F
WAUKESHA       CLOUDY    45  45 100 S12G18    29.85F FOG
WEST BEND      DRIZZLE   45  43  93 S13       29.81F
$$

INZ001>003-010>013-019-020-271600-
NORTHWEST INDIANA

CITY           SKY/WX    TMP DP  RH WIND       PRES   REMARKS
GARY*          CLOUDY    48  43  81 S17       29.98  FOG
MICHIGAN CITY* NOT AVBL
RENSSELAER*    NOT AVBL
VALPARAISO     FOG       45  45 100 S16       30.01F VSB 1
$$

LMZ740>746-271600-
SOUTHERN LAKE MICHIGAN

STATION/POSITION TIME  SKY/WX   TEMP WIND        PRES    VSBY
                                AIR  DIR/SP/G
                 (UTC)          (F)  (DEG/KT/KT) (MB)    (MI)
HARRISON CRIB    1500            46  190/ 23/ 25   N/A
BURNHAM HARBOR   1500            47  180/ 13/ 18   N/A
CALUMET HARBOR   1500            47  180/ 10/ 14 1013.6F
BURNS HARBOR     NOT AVBL
MICHIGAN CITY    1500            46  170/ 15/ 22   N/A
$$

ABBREVIATIONS USED IN REMARKS
   TC - TEMPERATURE IN CELSIUS
  WCI - WIND CHILL INDEX
   HX - HEAT INDEX
  VSB - VISIBILITY
$$


USA.gov is the U.S. government's official web portal to all federal, state and local government web resources and services.